Kuchera_Ratio
0.0 0.0 0.0 0.0 0.0 0.0 0.0 0.0 1.6 0.0 0.0 0.0 0.0 0.5 0.0 0.0 0.0 0.0 0.0 0.0 0.0 0.0 0.0 0.0 0.0 0.0 0.0 0.0 0.0 0.0 0.0 0.0 3.1 0.0 0.0 0.0 0.0 0.0 0.0 1.0 2.7 1.2 0.7 5.7
0.0 0.0 0.0 0.0 0.0 0.0 0.0 5.1 1.9 0.0 0.0 2.9 1.3 0.0 0.0 0.0 0.0 0.0 0.0 0.0 0.0 0.0 0.0 0.0 0.0 0.0 0.0 0.0 0.0 0.0 0.0 0.0 4.3 7.4 0.0 0.0 0.0 0.0 0.0 0.0 0.0 2.0 6.9 6.0
0.0 0.0 0.0 0.0 0.0 0.0 0.0 6.6 8.1 3.5 1.9 2.6 0.0 0.0 0.0 0.0 0.0 0.0 0.0 0.0 0.0 0.0 0.0 0.0 0.0 0.0 0.0 0.0 0.0 0.0 0.0 0.0 0.0 5.0 2.0 0.0 1.1 0.0 0.0 0.0 4.8 1.2 0.0 0.0
0.0 0.0 0.0 0.0 0.0 0.0 0.0 5.3 7.4 6.8 8.7 7.8 5.3 0.0 0.0 0.0 3.5 0.0 0.0 0.0 0.0 0.0 1.3 0.0 0.0 0.0 0.0 0.0 0.0 0.0 0.0 3.3 0.0 0.0 0.0 0.0 0.0 0.0 0.0 0.0 0.0 3.7 0.0 0.0
0.0 0.0 0.0 0.0 0.0 0.0 0.0 4.6 5.2 5.5 7.3 7.8 7.2 1.4 6.7 1.5 7.8 3.7 4.2 3.0 0.1 0.0 4.4 2.4 2.1 0.0 0.0 0.2 0.0 0.6 0.6 5.2 3.3 3.1 0.0 0.0 0.9 0.0 0.0 0.0 0.0 0.0 0.0 0.6
0.0 0.0 0.0 0.0 0.0 0.0 0.0 0.0 0.0 0.6 6.7 7.5 7.6 8.5 7.4 7.8 5.9 6.5 4.0 4.6 5.3 6.3 5.8 3.0 1.6 0.4 0.8 1.1 4.3 3.5 4.2 4.0 5.5 12.2 3.1 3.4 10.6 4.2 0.0 0.0 0.0 1.6 4.4 8.0
0.0 0.0 0.0 0.0 0.0 0.0 0.0 0.0 0.0 3.0 8.6 5.9 7.0 6.5 5.9 7.3 5.9 8.3 5.8 3.0 6.3 4.6 0.0 0.0 0.5 2.2 3.5 3.3 4.3 2.2 7.0 8.8 7.9 12.9 10.4 14.8 11.8 3.5 1.3 7.4 6.3 4.6 4.7 1.7
0.0 0.0 0.0 0.0 0.0 0.0 0.0 0.0 0.0 1.8 7.8 4.6 5.5 5.5 5.8 4.8 4.4 6.4 5.1 2.6 0.4 0.0 1.5 8.4 11.0 10.8 9.1 8.2 5.9 5.7 4.6 7.8 12.1 13.5 13.4 11.7 11.3 6.8 7.2 8.4 11.6 1.6 2.3 0.0
0.0 0.0 0.0 0.0 0.0 0.0 0.0 0.0 0.0 0.0 6.4 5.9 0.4 5.1 4.1 8.2 7.9 7.3 4.7 0.0 0.0 0.0 5.3 10.3 13.5 14.4 12.1 13.2 11.9 4.7 5.8 6.7 12.3 13.2 15.6 16.3 12.5 6.1 0.2 0.2 14.5 2.5 0.0 0.9
0.0 0.0 0.0 0.0 0.0 0.0 0.0 0.0 0.0 0.0 6.6 0.0 0.0 4.2 4.7 0.0 2.0 8.3 5.8 4.2 4.1 0.0 10.8 13.8 14.4 14.7 7.1 14.6 13.7 13.5 12.8 13.0 14.6 14.2 15.3 14.1 6.7 2.3 0.0 15.2 13.9 1.7 0.0 1.4
0.0 0.0 0.0 0.0 0.0 0.0 0.0 0.0 0.0 0.0 3.3 1.2 0.0 0.0 0.0 0.0 0.7 8.8 3.9 7.0 7.9 8.0 14.5 14.1 14.1 13.8 13.0 13.1 9.4 10.6 12.4 14.0 14.3 13.6 15.9 17.5 2.0 3.7 12.8 8.2 1.4 0.2 1.1 2.4
0.0 0.0 0.0 0.0 0.0 0.0 0.0 0.0 0.0 0.0 1.0 3.0 0.0 0.0 0.0 0.0 0.0 0.0 1.9 4.5 4.5 4.4 10.3 10.0 9.5 14.6 12.1 13.2 17.1 7.2 13.8 8.1 11.5 10.5 12.6 1.6 0.0 1.5 0.0 0.0 1.5 2.5 3.6 0.0
0.0 0.0 0.0 0.0 0.0 0.0 0.0 0.0 0.0 0.0 3.9 3.1 1.5 2.7 0.0 0.0 0.0 0.0 5.1 5.6 0.0 4.4 0.8 5.7 11.9 15.1 9.9 14.9 14.5 10.0 9.0 2.3 8.9 8.3 8.1 5.2 0.7 0.0 0.0 0.0 1.1 1.8 2.2 3.9
0.0 0.0 0.0 0.0 0.0 0.0 0.0 0.0 0.0 0.0 2.6 7.9 8.8 0.0 2.8 0.0 0.0 0.0 0.0 0.0 0.0 0.0 1.7 7.7 12.3 11.1 7.1 12.3 12.4 11.0 10.8 9.5 10.0 9.5 1.2 1.8 2.8 1.5 0.0 2.1 2.3 3.9 3.1 5.6
0.0 0.0 0.0 0.0 0.0 0.0 0.0 0.0 0.0 0.0 2.5 9.3 9.7 2.6 0.5 0.0 0.0 0.0 0.0 0.3 3.6 6.5 9.7 12.8 13.1 9.8 12.3 12.5 12.4 13.0 5.2 10.0 11.5 14.8 8.3 4.5 9.4 8.8 6.5 6.6 8.4 9.2 10.2 10.1
0.0 0.0 0.0 0.0 0.0 0.0 0.0 6.3 0.0 0.0 0.0 7.2 12.4 6.0 5.0 1.5 0.0 1.1 2.9 2.4 5.0 6.9 9.2 8.8 8.4 9.5 9.0 14.0 17.3 4.2 4.8 4.6 5.4 11.6 8.4 10.6 10.0 11.6 10.5 12.1 12.0 10.5 10.9 10.2
0.0 0.0 0.0 0.0 0.0 0.0 3.0 5.5 0.0 0.0 0.0 7.6 13.1 13.2 9.4 6.0 3.7 5.5 5.9 5.2 7.2 6.5 8.5 9.9 12.1 11.8 10.0 14.4 17.5 13.3 12.8 12.6 12.6 13.1 11.2 13.5 14.1 14.4 13.1 13.0 12.6 12.2 12.0 11.3
0.0 0.0 0.0 0.0 0.0 0.0 3.3 0.0 0.0 0.0 3.3 5.7 14.2 14.8 12.5 6.6 10.7 12.3 7.8 9.7 8.0 10.2 10.9 12.4 11.0 13.0 12.3 15.3 15.7 15.0 14.7 13.1 14.6 14.6 13.9 14.4 12.5 12.7 13.9 13.4 13.3 15.0 14.4 13.3
0.0 0.0 0.0 0.0 2.4 5.9 3.6 0.0 0.0 0.0 3.9 11.8 12.9 15.6 16.1 8.3 12.2 11.9 12.2 9.0 14.9 13.4 12.4 12.1 12.3 15.3 16.7 17.4 17.4 16.7 16.4 16.4 16.3 16.0 14.5 14.7 15.1 15.3 15.6 15.7 15.9 16.2 16.0 14.9
0.0 0.0 6.3 10.0 6.8 0.0 0.0 0.8 6.3 7.3 9.6 8.3 12.7 12.9 17.1 12.1 11.6 13.2 13.0 11.9 15.3 16.5 15.1 13.4 16.7 15.9 17.5 18.0 18.2 18.0 18.0 18.0 18.1 17.9 18.0 18.1 18.4 18.0 18.0 17.7 16.3 16.0 15.9 15.6
3.4 10.5 10.8 4.7 0.0 3.5 9.0 14.0 13.8 13.8 15.3 11.3 13.2 14.3 16.7 12.0 14.8 14.1 13.2 16.7 16.4 20.5 17.1 16.1 17.0 18.0 19.3 19.4 19.7 19.9 19.1 18.6 18.6 18.2 18.1 17.6 18.2 19.0 19.1 18.8 17.2 16.7 16.5 16.6
3.3 3.1 2.2 4.0 9.3 14.4 17.3 17.1 15.1 15.7 16.7 14.4 14.3 15.0 14.3 15.3 12.4 13.9 15.2 17.6 17.9 20.7 14.9 18.0 21.2 19.7 19.6 20.2 20.4 19.6 18.4 18.8 19.1 18.8 19.1 18.6 18.4 18.1 18.4 18.7 18.8 18.1 17.0 16.5
2.7 7.0 12.5 13.2 15.3 18.5 20.4 20.6 19.9 18.0 14.9 14.8 14.9 15.8 15.2 15.7 14.9 14.5 17.1 17.8 19.2 15.3 18.4 21.4 21.2 21.1 21.3 20.4 20.0 19.5 17.6 18.2 18.8 18.6 18.4 18.6 18.9 18.6 19.2 19.3 19.4 18.9 19.6 18.4
10.9 13.0 17.1 17.6 18.4 18.8 17.8 18.4 17.7 17.5 14.6 14.5 14.0 15.0 15.2 13.7 18.0 16.4 18.4 17.8 18.2 21.9 21.3 22.1 22.8 21.3 21.7 19.1 18.9 19.1 19.0 19.1 19.5 19.8 20.2 20.5 20.5 20.6 20.2 19.9 19.9 20.5 20.6 18.8
13.3 15.0 17.4 17.5 18.6 18.9 18.8 18.8 18.1 17.4 16.1 15.3 16.3 16.6 15.8 15.7 18.3 18.3 17.8 21.6 22.1 21.8 22.9 22.8 21.0 21.6 19.1 19.1 19.1 19.7 20.3 21.1 21.8 21.0 21.4 21.4 21.4 21.8 21.9 20.7 20.7 20.4 20.2 19.8
16.7 18.1 18.3 17.2 17.9 19.3 18.3 17.6 19.1 18.6 17.5 16.0 16.7 18.8 19.2 18.9 18.9 19.7 22.1 21.9 22.3 22.9 22.2 21.1 19.5 19.4 20.0 20.7 20.4 20.5 20.1 20.5 20.8 20.9 21.2 21.7 21.9 22.3 22.6 21.8 21.8 21.8 21.5 21.4
19.5 20.8 17.8 18.8 18.8 20.0 20.1 19.1 19.9 18.4 18.0 17.4 17.0 19.8 19.9 20.5 20.6 23.3 21.5 22.5 21.9 21.3 21.7 19.0 20.2 21.3 21.9 21.9 21.5 20.4 20.8 21.3 21.6 21.8 22.0 22.5 22.2 22.8 23.5 23.5 21.6 22.2 20.8 20.8